Date,TemperatureHighF,TemperatureAvgF,TemperatureLowF,DewpointHighF,DewpointAvgF,DewpointLowF,HumidityHigh,HumidityAvg,HumidityLow,PressureMaxIn,PressureMinIn,WindSpeedMaxMPH,WindSpeedAvgMPH,GustSpeedMaxMPH,PrecipitationSumIn
2013-2-1,59.1,45.9,36.3,36.0,32.3,27.0,83,62,31,30.44,30.30,6,1,9,0.00
2013-2-2,72.8,52.9,32.7,52.0,42.4,28.0,83,69,43,30.31,30.15,9,2,13,0.00
2013-2-3,70.9,50.5,34.0,46.0,36.8,30.0,85,65,24,30.30,30.09,4,0,7,0.00
2013-2-4,62.1,51.9,41.0,51.0,44.7,36.0,83,77,60,30.09,29.91,7,1,11,0.00
2013-2-5,67.5,57.5,49.7,58.0,51.6,45.0,84,81,71,30.04,29.92,5,0,7,0.00
2013-2-6,63.5,56.5,45.0,57.0,51.5,41.0,85,83,77,30.11,29.95,6,1,10,0.18
2013-2-7,66.4,59.4,53.7,57.0,53.6,49.0,85,81,70,29.98,29.89,3,0,7,0.00
2013-2-8,60.2,54.8,42.6,55.0,48.8,38.0,84,80,71,30.21,29.96,10,1,13,0.00
2013-2-9,62.4,51.5,39.6,55.0,45.2,35.0,85,79,67,30.21,29.97,11,1,15,0.00
2013-2-10,70.2,64.1,59.9,64.0,58.3,54.0,82,81,80,29.99,29.82,13,2,16,1.97
2013-2-11,59.7,52.9,50.4,54.0,47.7,45.0,83,82,75,30.14,29.95,5,1,9,0.47
2013-2-12,53.9,51.7,49.8,49.0,46.7,45.0,83,83,82,30.09,29.78,6,1,12,1.20
2013-2-13,55.4,47.2,33.7,45.0,39.4,29.0,83,75,57,30.10,29.89,9,1,11,0.00
2013-2-14,62.3,43.8,29.3,44.0,34.4,25.0,84,72,42,30.16,30.06,4,0,7,0.00
2013-2-15,64.3,46.7,32.3,44.0,36.2,28.0,84,69,38,30.27,30.10,8,1,13,0.01
2013-2-16,54.0,43.7,29.2,32.0,25.7,21.8,82,53,32,30.38,30.24,6,2,13,0.00
2013-2-17,66.9,49.1,28.3,45.0,35.3,24.0,82,61,40,30.29,30.11,14,3,20,0.00
2013-2-18,67.6,58.0,48.4,57.0,49.9,41.0,81,75,65,30.14,29.88,21,5,22,1.22
2013-2-20,55.5,52.5,51.5,35.0,33.2,30.0,54,48,38,30.06,29.98,5,2,15,0.00
2013-2-21,65.8,57.2,49.1,60.0,47.6,33.0,82,71,52,29.97,29.63,13,3,22,0.56
2013-2-22,64.0,52.4,47.3,50.0,45.9,42.0,83,79,56,30.03,29.89,5,1,8,0.03
2013-2-23,63.5,50.6,40.6,46.0,41.8,35.0,83,73,51,30.03,29.91,8,1,8,0.00
2013-2-24,69.9,53.3,38.4,47.0,39.7,33.0,83,63,31,30.02,29.73,8,1,12,0.00
2013-2-25,71.4,59.8,48.0,64.0,51.3,34.0,81,74,50,29.73,29.36,16,3,24,0.22
2013-2-26,58.5,47.5,37.3,40.0,35.2,32.0,82,63,45,29.94,29.57,11,4,19,0.00
2013-2-27,67.4,48.2,32.3,44.0,35.5,28.0,84,65,39,30.10,29.92,5,1,11,0.00
2013-2-28,58.4,43.7,33.1,34.0,29.5,26.0,81,60,29,30.21,30.09,8,1,10,0.00